Regional Weather Roundup
Issued by NWS

Home | Current Version | Previous Version | Graphics & Text | Print | Product List | Glossary Off
Versions: 1 2 3 4 5 6 7 8 9 10 11 12 13 14 15 16 17 18 19 20 21 22 23 24 25 26 27

000
ASUS43 KDMX 230307
RWRIA

WEATHER ROUNDUP FOR IOWA
NATIONAL WEATHER SERVICE DES MOINES IA
1000 PM CDT WED OCT 22 2014

NOTE: "FAIR" INDICATES FEW OR NO CLOUDS BELOW 12,000 FEET WITH NO
SIGNIFICANT WEATHER AND/OR OBSTRUCTIONS TO VISIBILITY.

* - THESE STATIONS ARE NOT NWS STATIONS...THUS NOT UNDER NWS
QUALITY CONTROL.  THEY ALSO DO NOT REPORT WEATHER SUCH
AS PRECIPITATION OR FOG.

IAZ001>003-012>014-020>022-031>034-043>046-230400-
   NORTHWEST IOWA

CITY           SKY/WX    TMP DP  RH WIND       PRES   REMARKS
CARROLL *      RAIN      59  52  77 SW9G15    30.12R
CHEROKEE *     CLOUDY    59  59 100 CALM      30.05F
DENISON *      LGT RAIN  59  59 100 SE7       30.06F
LE MARS *      CLOUDY    59  59 100 S7        30.04S
ORANGE CITY *  CLOUDY    61  57  88 S5        30.04R
SHELDON *      CLOUDY    59  59 100 S8        30.03R
SIOUX CITY     CLOUDY    60  59  96 E3        30.04R
SPENCER        CLOUDY    59  56  89 S13       30.05R
STORM LAKE *   CLOUDY    57  57 100 SE10      30.08S
$$

IAZ055>058-069>071-079>083-090>094-230400-
   SOUTHWEST IOWA

CITY           SKY/WX    TMP DP  RH WIND       PRES   REMARKS
ATLANTIC *     LGT RAIN  61  52  72 CALM      30.10R
AUDUBON *      RAIN      61  48  63 W6        30.13R
CLARINDA *     MOCLDY    61  50  67 S8G16     30.09S
COUNCIL BLFS * LGT RAIN  63  63 100 SE6       30.07S
CRESTON *      PTCLDY    55  48  76 SE14      30.10S
HARLAN  *      LGT RAIN  59  59 100 SE6       30.13S
LAMONI         PTCLDY    56  46  69 SE10      30.13R
RED OAK *      CLOUDY    64  52  63 W6        30.08R
SHENANDOAH *   CLOUDY    64  52  63 S15G21    30.06R
$$

IAZ047>049-059>061-072>074-084-230400-
   CENTRAL IOWA

CITY           SKY/WX    TMP DP  RH WIND       PRES   REMARKS
AMES           MOCLDY    55  43  63 SE12      30.11S
ANKENY *       MOCLDY    57  45  62 SE10      30.11S
CHARITON *     MOCLDY    55  45  67 SE13      30.13F
DES MOINES     MOCLDY    58  45  62 SE10      30.12S
GRINNELL*      MOCLDY    54  41  62 SE12      30.16S
KNOXVILLE *    CLEAR     55  43  62 SE10      30.13S
MARSHALLTOWN   MOCLDY    55  41  59 SE15      30.13S
PELLA *          N/A     55  43  62 SE12      30.16S
PERRY *          N/A     57  48  72 SE12      30.09R
$$

IAZ004>006-015-016-023>025-035-036-230400-
   NORTH CENTRAL IOWA

CITY           SKY/WX    TMP DP  RH WIND       PRES   REMARKS
ALGONA *       CLOUDY    57  48  72 S12       30.10S
CLARION *      PTCLDY    55  43  62 SE14G22   30.08S
ESTHERVILLE    CLOUDY    57  48  72 S20       30.04F
FORT DODGE *   CLOUDY    57  46  67 W9        30.14R
MASON CITY     PTCLDY    54  42  64 S15       30.11R
FOREST CITY *  MOCLDY    54  43  66 S8        30.12R
IOWA FALLS *     N/A     55  43  62 SE13      30.12S
$$

IAZ007>011-017>019-026>030-037>042-050>054-066-230400-
   NORTHEAST IOWA

CITY           SKY/WX    TMP DP  RH WIND       PRES   REMARKS
CEDAR RAPIDS   PTCLDY    50  40  68 S6        30.18S
CHARLES CITY * PTCLDY    54  39  58 SE14G21   30.14R
CLINTON *      CLEAR     45  36  70 SE8       30.26S
DECORAH *      CLOUDY    50  39  66 S8        30.15S
DUBUQUE        CLEAR     47  37  68 S14       30.20F
MONTICELLO *   PTCLDY    45  39  81 SE7       30.20S
OELWEIN *      CLOUDY    50  39  66 S10       30.17S
WATERLOO       CLOUDY    55  39  54 S15G24    30.14S
$$

IAZ064-065-067-068-078-230400-
   EAST CENTRAL IOWA

CITY           SKY/WX    TMP DP  RH WIND       PRES   REMARKS
DAVENPORT      CLEAR     44  35  70 SE8       30.23F
IOWA CITY      PTCLDY    46  39  76 SE6       30.21S
MT. PLEASANT * CLEAR     46  39  76 SE7       30.20S
MUSCATINE *    CLEAR     46  39  76 CALM      30.21F
QUAD CITIES    CLEAR     41  35  79 E6        30.23F
$$

IAZ062-063-075>077-085>089-095>099-230400-
   SOUTHEAST IOWA

CITY           SKY/WX    TMP DP  RH WIND       PRES   REMARKS
BURLINGTON     CLEAR     50  40  68 SE8       30.21F
FAIRFIELD *    CLEAR     50  41  71 SE12      30.18F
FORT MADISON * CLEAR     52  43  71 SE7       30.21F
KEOKUK *       CLEAR     50  43  76 SE6       30.20F
OSKALOOSA *      N/A     48  41  76 SE6       30.18S
CENTERVILLE *  PTCLDY    52  43  71 SE7       30.18S
OTTUMWA        PTCLDY    52  40  63 S9        30.17S
WASHINGTON *   CLEAR     48  41  76 SE8       30.19F
$$

ABBREVIATIONS USED IN REMARKS
   TC - TEMPERATURES IN CELSIUS
  WCI - WIND CHILL INDEX
   HX - HEAT INDEX
  VSB - VISIBILITY
$$




USA.gov is the U.S. government's official web portal to all federal, state and local government web resources and services.